Temp
82 76 73 79 83 85 85 83 79 81 82 76 72 65 66 70 74 81 84 86 87 87 90 93 94 95 93 91 88 88 86 85 85 86 85 82 85 86 85 75 82 82 85 86
79 73 83 87 87 84 83 79 79 74 79 74 70 65 69 69 71 78 83 85 83 82 86 90 92 93 92 88 87 86 84 84 85 86 82 80 76 83 84 84 86 87 88 87
76 81 87 86 84 82 83 82 76 63 78 73 69 59 62 64 67 69 83 87 87 83 81 90 91 91 91 87 86 86 84 84 85 87 81 74 77 81 81 82 84 87 87 88
80 88 84 83 81 85 78 88 78 77 72 63 74 53 65 66 64 64 75 80 84 84 82 90 91 91 91 88 89 86 86 84 85 82 85 82 80 75 82 82 84 86 85 87
77 81 82 80 82 87 81 90 85 86 80 69 71 68 64 66 61 64 70 81 83 85 84 88 90 90 92 91 90 87 85 84 85 84 84 80 72 67 75 75 84 84 83 84
82 90 88 84 87 88 90 84 85 83 81 66 72 73 61 57 60 77 80 82 83 85 86 88 88 92 90 93 91 88 84 83 84 85 83 82 76 72 74 77 80 81 85 86
78 81 88 88 81 87 85 78 66 64 66 66 78 73 65 64 66 63 72 71 76 80 84 88 89 90 88 90 90 88 83 82 84 84 85 84 83 73 73 79 81 79 82 84
69 67 81 87 81 79 80 78 69 57 61 68 78 61 64 72 68 66 72 73 75 73 71 82 88 84 86 88 89 87 83 82 84 85 84 84 84 80 81 84 81 77 76 75
70 71 85 84 86 82 78 73 84 75 77 72 65 64 69 73 70 69 68 70 72 75 83 73 83 88 86 85 83 87 84 83 84 85 84 84 85 85 87 88 87 87 75 80
74 65 80 81 84 83 79 85 71 74 60 60 62 62 62 64 64 65 63 64 67 72 74 80 76 74 75 75 74 81 86 84 84 86 84 86 85 85 86 87 87 88 81 74
79 71 72 79 74 73 75 73 76 78 75 65 56 56 72 70 67 63 62 63 65 68 71 71 72 72 73 73 70 70 75 84 83 86 86 85 86 86 86 86 88 86 88 77
79 74 65 71 81 84 82 77 78 68 65 72 57 53 69 72 71 67 64 63 66 68 71 72 72 69 67 69 69 68 69 70 73 78 84 85 85 86 86 86 87 87 86 87
74 71 61 66 73 78 73 78 80 80 79 67 59 55 70 70 67 67 67 66 66 69 71 72 72 70 68 67 66 68 68 68 72 79 79 83 84 85 85 85 86 87 86 86
72 71 65 55 62 73 69 74 78 77 68 71 61 55 59 63 62 65 67 69 69 67 69 71 72 72 70 69 67 66 66 67 70 72 72 77 81 82 83 84 84 85 85 85
74 63 69 70 72 72 73 73 75 71 73 65 59 58 59 63 63 66 68 68 68 69 69 71 72 72 72 71 69 68 67 66 67 69 69 70 72 77 82 83 83 84 85 86
73 61 67 65 72 71 68 72 73 73 74 69 67 61 67 67 68 66 67 68 69 71 72 72 72 73 71 71 71 69 68 67 69 67 65 68 70 70 71 75 79 82 83 84
68 65 61 57 68 68 62 69 72 73 75 74 61 65 69 65 65 66 67 70 70 71 73 73 74 73 75 74 74 72 70 69 67 67 68 66 68 69 68 70 71 77 79 80
65 63 63 58 62 50 68 77 77 74 76 77 73 69 70 70 70 70 72 72 71 72 73 74 76 76 77 77 76 75 75 73 70 69 68 69 68 68 67 67 68 70 72 76
72 65 59 55 56 64 68 69 70 70 70 75 70 69 70 72 72 68 73 73 73 73 73 74 76 77 75 75 75 74 74 74 74 72 72 73 72 68 67 67 66 67 68 70
71 67 60 59 52 50 59 72 77 76 60 77 73 68 66 67 57 63 72 74 73 74 73 72 74 76 74 73 74 71 72 72 70 70 71 71 72 73 71 70 69 69 69 70
58 59 55 56 54 61 69 72 75 56 59 76 75 72 69 63 66 67 72 72 73 73 72 73 73 71 70 71 71 69 69 68 69 70 70 70 71 70 73 74 73 70 69 70
56 54 53 56 52 49 72 69 61 65 73 75 76 64 62 68 69 70 68 70 71 70 72 73 70 69 70 70 68 66 65 67 68 68 68 68 69 71 73 71 73 72 71 69
52 61 55 58 57 67 72 68 72 74 71 72 71 73 71 70 70 70 69 70 70 70 70 71 69 68 69 68 67 65 65 67 67 66 66 66 67 69 70 69 70 73 72 71
63 67 60 61 65 67 70 71 72 73 71 73 73 72 72 70 71 70 70 69 69 70 69 69 68 66 65 66 66 65 64 64 64 63 64 66 67 66 68 71 73 73 75 75
63 63 60 60 64 67 68 70 71 71 73 72 73 72 71 71 70 70 68 68 68 68 68 67 65 65 64 64 63 64 63 63 62 63 64 64 68 67 69 70 72 74 74 73
63 61 55 54 65 64 67 71 72 69 69 71 70 70 72 71 69 70 68 68 68 66 66 65 64 63 62 61 61 62 61 61 60 61 63 66 67 68 69 70 71 65 57 57
MSLP
1003.87 1003.47 1002.20 1001.43 1000.71 999.68 998.79 998.82 1000.11 1000.89 1002.94 1005.05 1007.57 1010.05 1011.19 1011.51 1010.07 1008.92 1008.55 1008.50 1008.79 1009.33 1009.73 1010.29 1010.94 1011.81 1012.69 1013.68 1014.44 1014.73 1015.27 1015.85 1016.44 1016.72 1016.89 1017.26 1017.36 1017.26 1017.85 1018.60 1018.45 1018.21 1018.27 1018.55
1002.83 1002.13 1001.22 1000.86 1000.09 999.51 998.98 999.28 999.91 1003.00 1003.09 1005.19 1007.89 1010.05 1011.39 1011.73 1010.89 1009.38 1008.56 1008.46 1008.82 1009.47 1009.80 1010.07 1010.66 1011.37 1012.42 1013.58 1014.41 1014.88 1015.37 1015.88 1016.34 1016.51 1016.77 1017.09 1017.74 1017.55 1017.43 1017.60 1017.71 1017.85 1018.15 1018.44
1001.43 1000.85 1000.71 1000.07 999.32 998.79 998.30 998.33 999.64 1002.80 1003.14 1005.20 1007.75 1010.03 1011.79 1012.20 1011.49 1010.59 1008.82 1008.57 1008.90 1009.54 1009.91 1009.87 1010.33 1011.01 1012.07 1013.27 1014.19 1014.84 1015.30 1015.77 1016.21 1016.35 1017.04 1017.44 1018.19 1017.84 1018.09 1018.05 1017.88 1017.77 1018.07 1018.27
1001.12 1000.13 999.94 999.43 998.83 998.46 997.74 997.78 1000.19 1001.04 1001.71 1004.08 1005.93 1008.69 1010.29 1011.19 1011.07 1009.43 1009.34 1009.33 1008.99 1009.53 1010.16 1009.56 1010.04 1010.47 1011.40 1012.71 1013.77 1014.66 1015.16 1015.71 1016.14 1016.62 1016.71 1017.15 1017.63 1018.21 1017.77 1017.77 1017.73 1017.80 1017.94 1018.17
1000.40 999.89 999.31 998.97 998.62 998.20 997.70 997.46 998.99 998.55 999.72 1002.31 1004.60 1006.07 1008.71 1010.37 1008.72 1010.36 1009.94 1009.17 1009.17 1009.43 1009.57 1009.46 1009.59 1009.92 1010.72 1012.16 1013.19 1014.36 1014.97 1015.45 1015.82 1016.40 1016.98 1017.29 1018.15 1018.75 1018.31 1017.98 1017.77 1017.93 1017.96 1018.17
1000.13 999.82 999.08 999.10 998.89 998.52 998.29 998.08 997.88 998.72 999.33 1000.61 1002.47 1004.20 1008.52 1010.47 1011.00 1008.93 1009.11 1009.04 1009.33 1009.66 1009.80 1009.85 1009.78 1009.76 1010.68 1011.64 1012.64 1013.77 1014.76 1015.30 1015.62 1016.00 1016.66 1016.95 1017.84 1019.41 1019.51 1019.30 1018.54 1018.14 1018.10 1018.13
1000.29 999.30 999.26 999.54 999.09 998.67 998.74 998.63 998.45 998.88 999.20 999.49 1000.89 1003.47 1006.85 1009.67 1010.50 1011.05 1010.87 1011.01 1010.69 1010.37 1009.99 1009.85 1010.07 1010.13 1010.49 1011.13 1012.18 1013.41 1014.41 1015.01 1015.36 1015.74 1015.94 1016.38 1017.32 1018.88 1018.99 1019.24 1018.20 1017.73 1017.63 1017.86
1000.08 999.27 999.13 999.33 999.18 998.78 998.81 998.76 998.17 998.40 998.99 999.57 1001.06 1004.05 1007.35 1009.42 1011.17 1011.48 1012.45 1012.45 1011.84 1011.18 1010.71 1010.24 1009.27 1010.36 1010.74 1011.42 1011.96 1013.15 1014.38 1014.91 1015.17 1015.31 1015.58 1015.74 1016.55 1017.85 1018.42 1018.31 1017.54 1016.87 1017.59 1018.74
1000.10 999.16 999.33 999.78 999.75 1000.31 999.09 998.92 998.35 998.05 998.67 999.56 1002.60 1006.20 1008.26 1009.67 1011.28 1012.71 1013.21 1012.84 1012.77 1012.32 1011.26 1010.38 1009.99 1010.65 1011.47 1011.98 1012.43 1012.80 1013.95 1014.75 1015.05 1015.16 1015.47 1015.55 1015.69 1016.25 1016.68 1016.73 1016.31 1016.82 1018.47 1019.08
1001.40 1000.28 999.48 1000.43 1000.65 1000.70 1000.24 999.82 999.32 998.73 999.09 999.53 1002.92 1005.29 1006.81 1009.41 1011.29 1012.26 1012.99 1013.31 1013.49 1013.02 1012.40 1010.87 1011.76 1012.54 1012.93 1013.29 1013.85 1014.54 1013.55 1014.29 1014.62 1015.02 1015.13 1015.31 1015.49 1015.72 1015.93 1016.16 1015.98 1016.88 1018.91 1019.64
1002.09 1001.80 1001.26 1000.91 1001.01 1000.98 1000.84 1000.31 999.66 999.26 999.10 999.81 1003.47 1006.44 1007.71 1009.41 1011.61 1012.51 1013.46 1014.08 1014.24 1014.06 1013.83 1013.95 1013.95 1014.07 1013.62 1013.24 1013.41 1016.81 1015.59 1014.49 1014.56 1014.77 1014.79 1015.01 1015.37 1015.64 1016.01 1016.21 1015.92 1016.32 1017.81 1019.67
1002.66 1002.05 1002.20 1001.29 1001.33 1001.37 1000.57 1000.10 999.89 999.57 999.63 1000.15 1004.11 1008.42 1009.41 1010.50 1011.80 1013.01 1014.05 1014.78 1014.91 1014.69 1014.57 1014.78 1015.02 1015.66 1015.95 1015.77 1016.92 1015.59 1014.75 1017.71 1015.63 1014.93 1014.92 1014.95 1015.31 1015.63 1015.86 1016.29 1016.31 1016.34 1016.25 1016.93
1004.57 1002.73 1002.38 1001.94 1002.16 1001.90 1001.57 1000.93 1000.18 999.91 1000.09 1000.96 1004.19 1008.68 1010.50 1011.53 1012.71 1013.76 1014.27 1014.98 1015.15 1015.19 1015.12 1015.33 1015.85 1016.30 1016.84 1017.28 1017.40 1016.77 1017.13 1017.69 1016.87 1014.99 1015.38 1014.73 1014.66 1015.37 1015.63 1016.02 1016.38 1016.47 1016.74 1016.77
1005.69 1004.18 1003.73 1003.88 1002.97 1001.87 1001.96 1001.61 1001.06 1001.01 1001.22 1002.07 1005.49 1008.91 1011.19 1012.46 1013.67 1014.43 1014.64 1015.07 1015.23 1015.49 1015.67 1015.87 1016.14 1016.60 1017.29 1017.57 1017.62 1017.45 1017.49 1016.34 1016.53 1016.51 1016.88 1015.15 1014.97 1015.19 1015.59 1016.06 1016.43 1016.61 1016.73 1017.13
1005.84 1005.19 1004.67 1004.25 1004.11 1003.32 1002.03 1001.89 1001.85 1002.38 1002.62 1003.79 1007.39 1009.48 1011.67 1012.97 1013.97 1014.55 1014.93 1015.16 1015.27 1015.38 1015.79 1015.96 1016.27 1016.60 1016.81 1017.37 1018.05 1018.41 1018.86 1018.58 1018.58 1018.22 1017.80 1016.91 1016.46 1016.36 1016.04 1016.29 1016.65 1016.71 1016.70 1016.88
1006.42 1006.28 1005.96 1005.35 1004.58 1004.34 1003.34 1002.72 1002.68 1003.15 1003.70 1005.22 1007.19 1009.67 1011.69 1013.10 1014.04 1014.77 1015.11 1015.15 1015.19 1015.33 1015.70 1016.15 1016.45 1016.53 1016.90 1017.12 1017.54 1018.31 1018.76 1018.87 1018.47 1018.96 1017.92 1017.75 1017.79 1017.56 1017.50 1017.09 1016.71 1016.86 1016.84 1016.82
1007.04 1007.03 1006.81 1006.11 1005.59 1004.81 1004.38 1004.10 1003.87 1004.15 1004.49 1004.89 1007.00 1009.37 1011.18 1012.69 1013.65 1014.45 1014.93 1015.25 1015.46 1015.61 1015.81 1016.13 1016.48 1016.87 1017.18 1017.79 1018.05 1017.92 1018.19 1018.47 1018.84 1018.79 1018.74 1018.69 1018.75 1018.43 1018.14 1017.72 1017.61 1017.23 1017.04 1016.99
1007.72 1008.15 1007.76 1006.96 1006.43 1005.40 1004.76 1004.61 1004.27 1004.40 1004.84 1005.53 1006.93 1009.31 1011.12 1012.21 1013.43 1014.22 1014.84 1015.35 1015.87 1016.19 1016.37 1016.52 1016.75 1017.11 1017.35 1017.84 1018.32 1018.43 1018.24 1018.47 1018.59 1018.61 1018.82 1018.67 1018.74 1018.85 1018.73 1018.47 1018.37 1018.27 1018.05 1017.51
1008.37 1008.70 1008.13 1007.73 1007.00 1005.85 1005.26 1005.89 1005.64 1005.30 1005.20 1006.47 1008.34 1010.30 1011.55 1012.43 1013.59 1014.65 1015.18 1015.75 1016.40 1016.78 1017.13 1017.35 1017.55 1017.57 1017.96 1018.10 1018.45 1018.67 1018.59 1018.63 1018.61 1018.66 1018.73 1018.62 1018.88 1018.92 1018.58 1019.07 1018.87 1018.87 1018.58 1018.19
1008.89 1009.45 1009.31 1008.04 1007.58 1006.73 1006.88 1006.64 1006.79 1006.55 1006.73 1007.26 1008.89 1010.66 1012.36 1013.47 1014.36 1015.11 1015.70 1016.23 1016.90 1017.42 1017.89 1018.19 1018.18 1018.09 1018.57 1018.91 1019.01 1019.08 1018.94 1018.90 1019.13 1019.32 1019.27 1019.50 1019.02 1018.60 1018.70 1019.11 1019.24 1019.06 1018.85 1018.50
1009.77 1009.83 1009.67 1009.22 1008.67 1007.85 1008.16 1008.43 1008.41 1008.30 1009.03 1008.07 1009.39 1010.95 1012.29 1013.76 1014.57 1014.97 1015.99 1017.01 1017.69 1018.09 1018.51 1018.63 1018.81 1019.08 1019.52 1019.74 1019.88 1019.85 1019.91 1019.98 1020.24 1020.29 1020.27 1020.04 1019.74 1019.51 1019.00 1018.73 1018.73 1018.93 1018.85 1018.54
1010.19 1010.22 1010.07 1010.03 1009.62 1009.49 1009.65 1009.91 1009.95 1010.44 1010.01 1009.79 1010.41 1012.38 1013.79 1014.50 1015.18 1015.98 1016.96 1017.59 1018.03 1018.44 1018.65 1018.93 1019.29 1019.77 1020.01 1020.11 1020.37 1020.53 1020.58 1020.73 1020.70 1020.63 1020.49 1020.33 1020.18 1019.82 1019.24 1018.91 1018.64 1018.66 1018.57 1018.46
1011.48 1010.80 1010.81 1010.51 1010.39 1010.90 1010.79 1011.19 1011.37 1011.23 1011.40 1011.69 1012.26 1012.83 1013.76 1014.59 1015.40 1016.29 1017.15 1017.85 1018.29 1018.75 1019.10 1019.39 1019.81 1020.17 1020.43 1020.66 1020.82 1020.89 1020.98 1020.95 1020.85 1020.67 1020.43 1020.22 1019.97 1019.71 1019.40 1018.99 1018.53 1018.16 1017.84 1017.76
1011.31 1011.55 1011.43 1011.28 1011.31 1011.27 1011.52 1012.19 1012.34 1012.28 1012.61 1013.09 1013.47 1013.98 1014.52 1014.99 1015.73 1016.69 1017.46 1018.08 1018.61 1019.03 1019.41 1019.78 1020.11 1020.44 1020.75 1021.08 1021.22 1021.33 1021.39 1021.37 1021.21 1020.90 1020.53 1020.04 1019.61 1019.28 1018.96 1018.59 1018.06 1017.53 1017.14 1016.92
1011.73 1012.49 1012.09 1012.10 1011.90 1011.99 1012.19 1012.47 1012.99 1013.28 1013.22 1013.79 1014.19 1014.69 1015.23 1015.61 1016.21 1016.98 1017.67 1018.41 1018.94 1019.39 1019.77 1020.28 1020.69 1020.92 1021.23 1021.55 1021.76 1021.86 1021.80 1021.67 1021.34 1020.96 1020.53 1020.03 1019.39 1018.88 1018.43 1018.01 1017.59 1017.13 1016.75 1016.59
1012.77 1012.19 1012.48 1012.58 1012.36 1012.65 1012.13 1012.37 1013.03 1013.67 1014.08 1014.29 1014.71 1015.25 1015.67 1016.10 1016.58 1017.18 1017.88 1018.50 1019.05 1019.53 1020.24 1020.59 1020.98 1021.36 1021.83 1022.18 1022.33 1022.21 1022.38 1022.12 1021.73 1021.14 1020.47 1019.88 1019.38 1018.77 1018.34 1017.76 1017.06 1016.53 1016.16 1016.16
Wind_Speed
15 12 15 19 20 21 21 18 11 7 23 19 13 16 15 12 14 12 17 19 18 16 15 17 16 17 15 13 10 8 10 8 6 4 3 3 3 4 6 7 8 7 5 6
11 17 17 20 18 23 23 12 11 14 23 21 16 11 8 7 8 13 16 17 14 9 15 17 16 17 15 14 11 10 11 9 6 5 3 3 3 4 3 4 6 7 5 4
17 14 19 17 19 21 21 17 12 12 17 18 16 6 10 8 17 19 12 15 17 16 11 18 16 16 16 15 13 10 11 10 8 5 7 4 3 3 4 3 6 6 7 5
19 16 18 17 17 18 17 17 19 22 18 9 13 5 15 19 26 15 17 16 15 17 16 17 18 18 18 17 14 12 11 11 8 3 5 7 1 3 1 2 6 5 6 4
18 15 16 17 18 12 17 11 15 19 13 21 20 7 5 2 13 20 20 17 15 18 12 12 20 15 21 18 16 14 11 12 9 7 4 6 8 4 8 1 5 4 7 5
15 16 11 11 14 12 21 12 9 6 9 12 22 15 8 4 8 9 20 19 16 14 18 13 12 12 18 18 17 16 14 11 9 7 8 6 13 12 8 5 3 5 4 5
17 17 12 14 18 18 15 13 7 10 9 12 21 11 7 14 10 10 12 9 6 2 15 16 17 17 9 20 19 18 16 13 12 10 8 8 7 11 3 7 8 4 1 2
13 15 17 13 14 10 12 19 10 14 12 12 18 12 11 19 14 14 6 5 5 10 13 14 14 9 8 13 20 20 17 15 13 12 10 8 7 8 12 12 4 5 3 1
13 15 15 6 16 1 15 18 18 15 20 14 11 15 13 19 17 13 7 7 8 10 6 16 18 15 16 6 2 20 19 16 15 14 10 9 7 7 5 4 4 5 6 4
13 11 15 10 5 9 15 9 17 14 14 14 12 14 14 16 14 12 11 10 10 12 15 17 16 14 7 4 11 14 19 17 15 13 11 10 9 8 6 4 4 3 15 14
16 10 9 15 12 15 11 12 13 17 15 9 11 5 6 17 13 14 12 9 8 10 11 11 12 13 13 4 10 14 15 11 12 12 12 11 10 10 7 6 4 4 2 15
13 5 11 13 13 19 15 13 16 12 17 10 9 3 5 11 14 14 12 10 8 8 9 11 14 14 12 11 6 3 14 19 10 8 11 11 9 9 11 8 7 5 5 3
11 9 3 8 7 7 9 13 15 12 16 14 6 7 7 14 13 11 13 12 10 9 11 13 14 15 13 10 8 7 9 10 10 6 8 10 12 11 8 9 8 7 6 4
6 12 8 6 13 9 17 15 12 13 11 13 9 20 15 15 13 11 13 12 12 11 11 12 14 15 14 14 13 11 10 9 12 12 10 6 6 9 7 6 8 7 7 8
5 10 12 4 7 12 14 20 17 9 15 11 17 19 15 13 13 12 12 12 12 11 12 12 14 14 13 14 13 12 9 7 6 6 9 12 13 11 3 5 6 7 8 8
2 9 10 11 6 5 10 7 4 4 11 15 18 19 17 15 13 14 12 12 12 12 12 12 10 12 12 12 11 10 7 9 10 9 10 11 10 10 13 12 7 6 8 8
4 7 10 10 13 12 10 10 9 8 11 4 15 15 17 17 15 11 9 11 11 10 11 11 11 10 10 11 10 7 7 6 6 8 9 9 8 9 9 9 11 10 7 7
2 8 9 10 9 15 6 7 9 12 11 4 13 22 19 18 15 14 12 12 11 10 9 9 9 9 10 11 10 7 8 4 4 6 6 8 9 9 8 9 10 11 10 9
3 7 6 10 11 12 8 3 4 7 7 18 20 17 15 15 17 12 11 11 10 8 7 8 7 7 9 10 9 8 7 8 10 11 11 9 5 6 8 7 7 6 8 7
6 6 8 7 11 12 13 11 4 1 5 9 18 17 16 12 9 10 11 10 9 9 8 5 6 8 10 10 11 9 9 8 10 10 10 10 11 9 5 4 4 5 5 7
5 5 7 8 6 5 9 11 4 4 3 14 16 19 21 12 7 13 13 10 8 6 8 6 6 8 7 8 8 8 8 9 9 9 8 8 9 9 9 1 2 3 6 6
4 6 5 7 9 6 7 4 5 5 5 10 5 15 18 15 16 14 10 8 6 5 5 5 6 7 6 7 7 7 7 9 9 8 8 8 8 8 9 9 6 6 6 6
5 5 5 6 4 5 6 9 5 5 7 9 8 10 13 12 12 11 9 5 5 4 4 4 5 4 6 7 6 7 7 7 8 9 9 9 9 8 9 9 8 7 7 7
9 5 4 4 9 7 5 5 2 2 9 6 7 5 5 7 8 7 5 5 3 3 3 4 4 5 6 6 8 8 10 10 11 11 11 9 9 9 9 8 8 8 8 7
5 3 5 7 11 2 1 2 4 4 5 9 7 8 7 6 7 6 5 4 3 2 2 5 4 4 5 7 8 10 9 10 11 11 10 11 9 9 9 9 9 9 9 7
7 5 4 6 4 6 7 7 9 6 6 6 7 7 7 7 7 7 5 4 3 3 3 3 5 6 8 8 8 8 10 10 12 12 10 9 10 9 9 10 10 12 14 14
Wind_Direction
199 216 211 213 221 242 220 213 194 309 132 112 139 151 182 208 243 185 172 172 163 160 158 158 164 153 151 145 161 146 133 138 137 208 172 138 184 132 126 171 196 159 161 131
180 223 225 231 221 237 255 278 147 121 102 108 132 132 162 211 239 229 181 178 160 140 157 163 166 155 151 147 163 157 139 153 188 203 51 61 58 276 159 133 135 127 126 147
225 215 234 219 237 226 240 228 148 167 109 116 120 120 145 219 238 254 189 186 154 149 179 168 168 157 152 151 161 168 153 170 209 203 117 66 300 186 131 165 154 148 153 172
233 242 197 233 242 224 243 232 146 165 135 152 179 144 189 192 208 236 156 208 177 158 200 172 171 169 159 155 162 165 163 177 214 195 153 153 98 352 290 38 134 156 153 162
218 231 211 223 226 213 243 241 177 211 192 122 194 154 208 254 290 181 189 170 186 176 186 186 175 185 155 158 162 163 178 178 209 157 154 168 103 300 281 69 151 147 152 164
243 218 228 220 233 227 239 300 181 256 214 187 194 210 162 118 316 138 158 164 177 175 187 205 192 195 153 161 163 160 179 185 203 189 183 195 157 179 238 243 141 177 171 158
225 234 210 218 218 231 218 248 205 208 225 250 163 207 138 152 99 35 54 47 12 217 206 191 185 209 158 163 164 160 173 187 188 205 191 205 153 107 24 207 215 106 116 200
210 214 191 207 244 225 201 237 209 203 224 228 168 131 121 122 108 87 30 57 7 111 297 264 186 166 241 172 166 162 171 183 193 194 203 207 191 164 182 215 152 150 166 282
211 223 186 180 232 300 188 234 251 232 222 227 110 99 126 126 114 120 98 54 35 349 252 192 249 166 196 289 41 163 170 183 191 199 201 206 208 211 195 213 189 170 157 157
291 292 151 169 282 281 272 260 241 253 272 253 136 155 146 138 123 101 69 50 22 19 0 26 40 44 19 90 35 319 166 179 188 199 195 200 201 207 230 272 203 323 109 109
288 160 203 191 205 232 222 252 258 267 257 238 169 91 79 130 118 102 89 65 32 24 16 46 55 49 37 66 43 347 8 196 179 206 191 197 200 196 203 226 206 252 145 152
297 321 188 212 209 219 258 252 234 245 251 274 92 76 61 107 110 102 98 85 61 40 35 44 64 64 49 67 120 249 41 328 0 278 194 199 193 203 187 199 213 206 254 243
348 243 144 141 183 235 244 244 273 272 263 273 173 131 137 105 102 109 108 100 81 59 51 54 61 73 71 68 57 66 105 305 315 22 327 213 188 196 198 189 199 192 203 242
300 294 1 353 331 303 212 241 243 267 278 277 64 136 140 128 120 125 112 104 97 89 64 66 64 71 83 75 67 48 47 15 348 22 358 8 222 191 201 201 200 199 189 196
299 297 303 209 265 319 324 209 235 247 276 338 138 142 142 140 149 134 119 114 103 90 80 63 68 64 64 77 80 82 81 60 26 3 22 20 21 5 246 268 232 211 205 198
299 295 307 300 268 268 313 355 16 250 263 113 118 135 138 135 134 144 139 125 111 100 92 84 57 78 64 47 71 75 71 70 60 46 41 22 11 16 16 359 307 255 234 216
238 287 274 266 279 266 243 251 255 231 263 155 149 152 143 145 141 139 130 123 110 101 92 85 78 71 65 74 42 55 85 90 79 73 64 51 21 19 10 1 8 339 289 282
227 248 273 275 276 253 263 350 291 268 228 111 89 148 158 153 142 145 144 132 113 104 88 68 66 52 58 62 58 31 36 95 116 90 96 75 49 26 27 9 15 354 355 325
194 284 244 246 234 253 207 205 263 278 178 108 126 146 154 146 126 115 120 119 114 107 89 63 47 56 53 29 42 20 43 22 40 31 21 19 65 48 27 19 358 349 340 328
275 205 283 270 255 270 29 80 21 332 241 130 131 131 132 132 159 159 142 131 112 89 79 55 43 49 45 21 19 9 16 17 30 20 15 354 352 1 8 8 341 332 322 314
200 256 243 249 270 98 97 80 354 193 360 165 149 157 163 149 82 96 112 102 102 99 93 86 61 53 37 25 11 6 9 17 8 358 349 343 341 331 302 324 317 311 322 318
292 195 219 250 259 248 84 83 322 49 60 48 69 106 94 113 118 114 118 126 119 99 86 68 65 46 19 28 17 6 6 1 345 337 329 328 323 319 322 319 308 289 276 274
275 338 311 15 48 59 68 65 71 64 82 72 78 74 111 127 128 131 134 130 110 96 63 42 44 27 28 20 10 356 357 341 338 327 322 316 309 300 292 289 284 275 258 235
196 265 285 332 149 166 127 75 95 106 123 101 114 115 128 138 130 140 147 148 113 70 46 33 15 14 10 6 358 358 354 346 335 324 318 310 308 301 292 283 280 275 270 268
250 166 221 260 290 289 124 271 192 181 162 160 168 163 184 188 164 172 165 148 172 99 53 33 355 354 356 5 353 341 341 336 326 320 314 306 291 283 280 271 272 273 271 278
278 215 227 263 358 347 291 197 171 197 200 181 184 198 190 187 193 167 180 165 161 96 31 341 1 357 350 346 327 341 339 326 327 317 307 310 312 301 301 302 298 280 246 262